Activity Log for Nov, 03 2019

Back to Activity Log Search


Incident Time Nature Address
19F135109 00:01:32 43,62 9XX THIRD ST
19F135110 00:06:40 129 1XX W COLUMBIA ST
19F135112 00:14:19 911 HANG UP 8XX OXFORD ST
19F135113 00:15:15 25HS HIT SKIP OXFORD ST & BOWSER AVE
19F135114 00:24:43 23JO 65XX ST JOE RD
19F135116 00:35:05 23 VANDALISM 85XX GERIG RD
19F135117 00:36:23 44LM 35XX ACADEMIC PL
19F135118 00:40:50 50IP BURG I/P 13XX TAMERA GARDEN AVE
19F135119 00:43:26 40A AUDIBLE 23XX FOREST VALLEY DR
19F135120 00:44:21 25HS HIT SKIP 29XX HOLTON AVE
19F135121 00:52:09 70 STRUCTURE 4XX BUCHANAN ST
19F135122 00:55:01 129 33XX ACADEMIC PL
19F135123 00:57:49 129 62XX ST JOE RD
19F135124 01:01:07 43 DISTURBANCE 16XX WELLS ST
19F135125 01:04:26 113 SHOTS FIRED 9XX CRESCENT AVE
19F135127 01:05:59 ATL 96XX HIDDEN VILLAGE PL
19F135126 01:06:12 33,34 STELLHORN RD & REED RD
19F135129 01:10:09 43 DISTURBANCE 29XX WESTBROOK DR
19F135128 01:10:38 113 SHOTS FIRED 9XX KENSINGTON BLVD
19F135130 01:13:06 39R STOLEN RECO WEISSER PARK AVE & MCKEE ST
19F135133 01:15:09 48 SUSPICIOUS 79XX SERENITY DR
19F135131 01:15:42 48,36 WESTBROOK DR & YOUNG DR
19F135132 01:16:10 44LM 41XX SOUTH DR
19F135134 01:17:41 15 ASSIST W JEFFERSON BLVD & S CALHOUN ST
19F135135 01:18:10 66 MENTALLY ILL 59XX BUNT DR
19F135137 01:25:24 46,96 7XX RIVERSIDE AVE
19F135136 01:25:53 43 DISTURBANCE 1XX W CONCORD LN
19F135138 01:37:18 25HS HIT SKIP 3XX W ESSEX LN
19F135139 01:40:03 103 UNWANTED 17XX APPLE GLEN BLVD
19F135140 01:42:18 44LP KILLARNEY PL & MAYWIN DR
19F135141 01:46:50 43 DISTURBANCE 13XX VANCE AVE
19F135142 01:02:37 44LM 9XX W WAYNE ST
19F135143 01:04:59 911 HANG UP 19XX BROADWAY
19F135144 01:07:18 30 TRAFFIC STOP E STATE BLVD & BEACON ST
19F135145 01:14:03 48,36 33XX TIMBERHILL DR
19F135148 01:21:48 44LM 60XX BUNT DR
19F135146 01:27:41 113 SHOTS FIRED 29XX WEISSER PARK AVE
19F135147 01:30:01 44 NUISANCE FOX AVE & W DEWALD ST
19F135149 01:31:26 23,113 29XX WEISSER PARK AVE
19F135150 01:37:50 34 TRAFF HAZARD COLDWATER RD & SPRINGBROOK RD
19F135151 01:38:15 40A AUDIBLE 42XX OLD MILL RD
19F135152 01:38:30 43 DISTURBANCE 42XX W WASHINGTON CENTER RD
19F135153 01:51:34 43 DISTURBANCE MAYWIN DR & KILLARNEY PL
19F135154 01:52:47 ATL 5XX MCKINNIE AVE
19F135155 02:08:13 25,86 115XX MAYWIN DR
19F135156 02:09:10 96IP S HANNA ST & E WALLACE ST
19F135157 02:15:05 46,96 5XX MCKINNIE AVE
19F135163 02:22:22 EMS 46XX S LAFAYETTE ST
19F135158 02:24:25 43,62 20XX CHARTWELL DR
19F135159 02:31:32 41,36 NUTTMAN AVE & WENONAH LN
19F135160 02:39:50 96JO RODGERS AVE & BIRCHWOOD AVE
19F135161 02:42:27 41,36 32XX ST JOE CENTER RD
19F135162 02:53:15 33,34 W WILLIAMS ST & S CALHOUN ST
19F135165 02:55:27 113 SHOTS FIRED 9XX CURDES AVE
19F135164 02:55:59 43,62 S HANNA ST & E WALLACE ST
19F135166 03:21:57 56 MOLESTING 25XX MAUMEE AVE
19F135167 03:39:51 43 DISTURBANCE 26XX CARVER CT
19F135168 03:40:53 40A AUDIBLE 4XX E COLISEUM BLVD
19F135169 03:46:46 48,36 MAYWIN DR & LIMERICK PL
19F135170 03:48:34 40P PANIC ALARM 12XX N HARRISON ST
19F135171 03:49:10 25 PD ACCIDENT N CLINTON ST & WAKEFIELD AVE
19F135172 03:56:41 48,36 E STATE BLVD & MAYSVILLE RD
19F135173 04:11:57 50IP BURG I/P 82XX NORTHBURY DR
19F135174 04:16:31 50IP BURG I/P 5XX E JEFFERSON BLVD
19F135184 04:16:54 51 THEFT 23XX EBY AVE
19F135175 04:30:34 50 BURGLARY 51XX BOWSER AVE
19F135177 04:32:18 103 UNWANTED 7XX DOLPHIN DR
19F135176 04:33:00 46 DOMESTIC 7XX RIVERSIDE AVE
19F135178 04:38:10 39U UNAUTHORIZE 22XX DUNKELBERG RD
19F135179 04:49:43 51JO 63XX ILLINOIS RD
19F135180 05:00:14 25 PD ACCIDENT 43XX S ANTHONY BLVD
19F135181 05:05:07 911 HANG UP 19XX INWOOD DR
19F135182 05:21:28 43 DISTURBANCE 19XX BROADWAY
19F135183 05:47:12 40A AUDIBLE 18XX W DUPONT RD
19F135185 06:14:36 40A AUDIBLE 3XX E MAIN ST
19F135186 06:24:21 43 DISTURBANCE 11XX FRANKLIN AVE
19F135187 06:25:08 65T SUICIDE THR 26XX E STATE BLVD
19F135188 06:28:26 34 TRAFF HAZARD GLASGOW AVE & E WASHINGTON BLVD
19F135189 06:32:22 43 DISTURBANCE 21XX EDEN ST
19F135190 06:54:33 63 CONTACT S ANTHONY BLVD & E PONTIAC ST
19F135191 07:11:00 51 THEFT 77XX SOUTHTOWN XING
19F135192 07:14:22 30 TRAFFIC STOP SMITH ST & MCKEE ST
19F135193 07:29:45 63 CONTACT 7XX RIVERSIDE AVE
19F135194 07:36:28 40A AUDIBLE 68XX LAKE FOREST VILLAGE CIR
19F135195 07:50:10 30 TRAFFIC STOP WINCHESTER RD & MAYFLOWER RD
19F135196 08:08:18 99 NARCOTICS 28XX S HARRISON ST
19F135197 08:14:12 113 SHOTS FIRED 8XX WOODVIEW BLVD
19F135198 08:20:11 40A AUDIBLE 68XX LAKE FOREST VILLAGE CIR
19F135199 08:26:19 48,35 63XX LIMA RD
19F135200 08:29:16 30 TRAFFIC STOP S ANTHONY BLVD & MCKINNIE AVE
19F135203 08:39:08 96 BATTERY 51XX OLIVER ST
19F135201 08:39:36 EMS 32XX LILLIE ST
19F135202 08:41:12 48,36 33XX W COLISEUM BLVD
19F135204 08:45:29 51JO 39XX E STATE BLVD
19F135205 08:50:17 63 CONTACT 3XX W STATE BLVD
19F135206 08:53:21 51JO 11XX N COLISEUM BLVD
19F135207 08:54:04 25HS HIT SKIP E COLISEUM BLVD & COLDWATER RD
19F135208 08:57:59 40H HOLDUP ALRM 7XX E COLISEUM BLVD
19F135210 09:05:50 39U UNAUTHORIZE 8XX W COLISEUM BLVD
19F135209 09:07:31 46,96 46XX E WASHINGTON BLVD
19F135212 09:10:51 66 MENTALLY ILL 27XX MAPLECREST RD
19F135211 09:11:39 40A AUDIBLE 50XX MCCLELLAN ST
19F135214 09:13:10 41 MAN DOWN 2XX E MAIN ST
19F135218 09:13:58 25HS HIT SKIP 37XX WARSAW ST
19F135213 09:14:30 33,34 I 69 312 NB ON RAMP & COLDWATER RD
19F135215 09:16:54 17 MOTOR CHECK 53XX PORTA TRL
19F135216 09:17:45 18 WORK TRAFFIC AIRPORT EXPRESSWAY & BLUFFTON RD
19F135217 09:18:21 EMS W STATE BLVD & WELLS ST
19F135219 09:35:11 129 74XX TIPPERARY TRL
19F135220 09:35:30 129 74XX ANTEBELLUM BLVD
19F135221 09:36:06 48 SUSPICIOUS 34XX CHEVIOT DR
19F135223 09:40:48 40A AUDIBLE 1XX W WAYNE ST
19F135222 09:41:44 25 PD ACCIDENT S LAFAYETTE ST & WIEBKE ST
19F135224 09:47:08 113 SHOTS FIRED 111XX CLAREWOOD CT
19F135225 09:56:35 43 DISTURBANCE 63XX SOUTHCREST RD
19F135227 09:58:29 ATL 33XX DIPLOMAT DR
19F135226 10:00:04 48,36 42XX S HANNA ST
19F135228 10:10:35 30 TRAFFIC STOP TERRACE RD & BROOK ST
19F135229 10:10:49 30 TRAFFIC STOP E COLISEUM BLVD & PARNELL AVE
19F135230 10:11:04 48,36 64XX ST JOE RD
19F135231 10:19:31 51JO 58XX S ANTHONY BLVD
19F135233 10:27:04 22RC RECOVERY 65XX ST JOE RD
19F135232 10:34:55 51 THEFT 5XX WALLEN HILLS DR
19F135240 10:37:03 46 DOMESTIC 39XX ROBINWOOD DR
19F135235 10:39:07 40A AUDIBLE 5XX E DUPONT RD
19F135234 10:39:14 51,35 58XX COLDWATER RD
19F135236 10:40:26 EMS 3XX W BERRY ST
19F135237 10:48:56 51JO 11XX N COLISEUM BLVD
19F135243 10:49:09 47 REMOVE ITEMS 71XX BLUE BEECH DR
19F135238 10:55:10 25 PD ACCIDENT 62XX LAKE AVE
19F135239 10:56:33 41,36 WELLS ST & W FOURTH ST
19F135241 11:00:12 50,ATTEMPTED 39XX N CLINTON ST
19F135242 11:02:00 30 TRAFFIC STOP S CLINTON ST & E WILLIAMS ST
19F135244 11:04:23 43 DISTURBANCE 12XX N COLISEUM BLVD
19F135245 11:21:24 23,35 VAND VEH 29XX WESTBROOK DR
19F135246 11:27:08 20 PROBLEM UNK 12XX RALPH AVE
19F135249 11:28:04 25 PD ACCIDENT ST JOE CENTER RD & INLAND TRL
19F135247 11:28:34 15 ASSIST 19XX RESERVATION DR
19F135248 11:28:47 43 DISTURBANCE 17XX LOWER HUNTINGTON RD
19F135250 11:29:53 46 DOMESTIC 34XX ROBINWOOD DR
19F135251 11:36:35 46 DOMESTIC 39XX ROBINWOOD DR
19F135252 11:40:03 48 SUSPICIOUS 46XX COLDWATER RD
19F135253 11:43:29 51 THEFT 115XX MAYWIN DR
19F135254 11:45:08 63Z ZACH CHECK 61XX GRAYMOOR LN
19F135255 11:49:45 43,62 46XX S CALHOUN ST
19F135257 11:50:29 66 MENTALLY ILL 10XX LAKE AVE
19F135256 11:52:40 30 TRAFFIC STOP 53XX COLDWATER RD
19F135258 12:00:33 23 VANDALISM 29XX MARIPOSA PL
19F135259 12:02:03 43 DISTURBANCE 47XX HEATHERWIND DR
19F135260 12:08:08 25 PD ACCIDENT 113XX COLDWATER RD
19F135262 12:12:38 40H HOLDUP ALRM 54XX COLDWATER RD
19F135263 12:17:43 40A AUDIBLE 19XX W COLISEUM BLVD
19F135264 12:19:07 40A AUDIBLE 41XX HESSEN CASSEL RD
19F135271 12:20:06 63 CONTACT 83XX TEWKSBURY CT
19F135265 12:20:58 46 DOMESTIC 75XX BLUFFTON RD
19F135266 12:24:59 33,34 E WALLEN RD & WALLEN CHASE RUN
19F135267 12:29:13 129 11XX NORMANDALE DR
19F135272 12:32:21 47 REMOVE ITEMS 22XX VERSAILLES VILLAGE PL
19F135268 12:34:52 48 SUSPICIOUS 39XX OLD MILL RD
19F135269 12:36:46 43 DISTURBANCE 37XX E WASHINGTON BLVD
19F135270 12:37:18 103 UNWANTED 5XX WALLEN HILLS DR
19F135280 12:44:11 39 STOLEN VEHIC 43XX COLDWATER RD
19F135273 12:54:29 40A AUDIBLE 5XX E PETTIT AVE
19F135294 12:55:21 25HS HIT SKIP W HOLLIS LN & WEBSTER ST
19F135277 12:56:28 40A AUDIBLE 44XX S HARRISON ST
19F135276 13:01:42 26 PI ACCIDENT 7XX E COLISEUM BLVD
19F135278 13:10:35 55 FIGHT 20XX CHARTWELL DR
19F135296 13:11:38 1 MEET 9XX THIRD ST
19F135281 13:18:37 EMS CRESCENT AVE & E COLISEUM BLVD
19F135283 13:23:23 48,35 GAY ST & E CREIGHTON AVE
19F135282 13:23:57 96JO 59XX BUNT DR
19F135284 13:29:49 46 DOMESTIC 44XX KENILWORTH ST
19F135286 13:30:26 103 UNWANTED BROADWAY & TAYLOR ST
19F135287 13:36:54 30 TRAFFIC STOP W JEFFERSON BLVD & ROLLING HILLS P
19F135298 13:39:32 11C CAGE CAR 75XX SOUTHTOWN XING
19F135289 13:41:18 48 SUSPICIOUS 70XX OLD TRAIL RD
19F135291 13:41:43 40I INTRUSION 41XX WAYNE TRACE
19F135290 13:44:18 66V MENTAL VIOL 82XX NORTHBURY DR
19F135293 13:49:03 26 PI ACCIDENT HARTZELL RD & SEILER RD
19F135297 13:53:06 108 FOLLOWUP 8XX KINNAIRD AVE
19F135295 14:00:54 25 PD ACCIDENT W WAYNE ST & BROADWAY
19F135299 14:07:02 30 TRAFFIC STOP 307XX I 69 SB
19F135300 14:10:10 111D DOG 36XX MCARTHUR DR
19F135304 14:10:48 39R STOLEN RECO 1XX W WAYNE ST
19F135301 14:12:20 30 TRAFFIC STOP S ANTHONY BLVD & E PAULDING RD
19F135302 14:16:16 25HS HIT SKIP E WALLEN RD & COLDWATER RD
19F135305 14:17:47 17 MOTOR CHECK 30XX EUCLID AVE
19F135303 14:19:42 30 TRAFFIC STOP S ANTHONY BLVD & SEDDLEMEYER AVE
19F135306 14:25:21 103 UNWANTED 31XX W COLISEUM BLVD
19F135309 14:27:33 1 MEET 93XX COVINGTON WOODS CT
19F135307 14:27:41 25HS HIT SKIP 13XX ROCKHILL ST
19F135308 14:29:49 30 TRAFFIC STOP E PAULDING RD & STANDISH DR
19F135317 14:30:56 51 THEFT 29XX WATER WHEEL RUN
19F135312 14:31:41 65T SUICIDE THR 3XX W SHERWOOD TER
19F135310 14:32:26 30 TRAFFIC STOP HENDRICKS ST & FAIRFIELD AVE
19F135320 14:32:30 25HS HIT SKIP W JEFFERSON BLVD & VAN BUREN ST
19F135311 14:32:34 30 TRAFFIC STOP S ANTHONY BLVD & ECKART ST
19F135313 14:33:35 25 PD ACCIDENT MAPLECREST RD & E STATE BLVD
19F135314 14:34:14 25 PD ACCIDENT 7XX W WAYNE ST
19F135321 14:34:47 39 STOLEN VEHIC 23XX S ANTHONY BLVD
19F135329 14:35:23 47 REMOVE ITEMS 4XX W CONCORD LN
19F135319 14:35:52 48 SUSPICIOUS 70XX ELZEY ST
19F135315 14:37:38 30 TRAFFIC STOP FRUEHAUF DR & OXFORD ST
19F135316 14:37:52 33,34 29XX SHERMAN BLVD
19F135318 14:39:14 23 VANDALISM 1XX MCKINNIE AVE
19F135334 14:44:18 51 THEFT 9XX LINCOLN AVE
19F135370 14:47:49 47 REMOVE ITEMS 3XX PASADENA DR
19F135322 14:52:38 30 TRAFFIC STOP CENTRAL DR & OXFORD ST
19F135323 14:53:02 39 STOLEN VEHIC 23XX S ANTHONY BLVD
19F135324 14:53:36 30 TRAFFIC STOP GRISWOLD DR & TENNESSEE AVE
19F135328 14:54:29 63 CONTACT 31XX BROADWAY
19F135326 14:54:55 39 STOLEN VEHIC 39XX ICE WAY
19F135387 14:54:55 39 STOLEN VEHIC 39XX ICE WAY
19F135336 14:55:58 37 PARKING VIOL 29XX ARCH TREE PL
19F135325 14:56:38 51 THEFT 55XX MEIJER DR
19F135327 15:00:12 51 THEFT 6XX WAGNER ST
19F135330 15:10:52 48 SUSPICIOUS 1XX COUNTRY FOREST DR
19F135331 15:12:44 33,34 THIRD ST & SHERMAN BLVD
19F135332 15:16:29 30 TRAFFIC STOP OAKLAWN CT & E WALLACE ST
19F135333 15:17:01 30 TRAFFIC STOP E RUDISILL BLVD & WARSAW ST
19F135335 15:27:45 30 TRAFFIC STOP 11XX GOSHEN AVE
19F135337 15:31:53 911 HANG UP 100XX LIMA RD
19F135342 15:33:18 39 STOLEN VEHIC 67XX JOHN ST
19F135338 15:36:58 25HS HIT SKIP 20XX DREXEL AVE
19F135339 15:39:02 30 TRAFFIC STOP LAKE AVE & N COLISEUM BLVD
19F135341 15:42:36 30 TRAFFIC STOP E WASHINGTON BLVD & S CLINTON ST
19F135340 15:43:40 48 SUSPICIOUS 18XX BLUFFTON RD
19F135343 15:52:28 30 TRAFFIC STOP S HANNA ST & MCKINNIE AVE
19F135344 15:55:58 108 FOLLOWUP 79XX W JEFFERSON BLVD
19F135346 15:58:50 57 STRONG ARM 25XX MINER ST
19F135345 15:59:20 51,35 15XX E PAULDING RD
19F135347 16:02:17 103 UNWANTED 7XX E TILLMAN RD
19F135348 16:05:44 30 TRAFFIC STOP S HANNA ST & E MAPLE GROVE AVE
19F135377 16:07:30 96 BATTERY 4XX W LENOX AVE
19F135349 16:09:26 48,36 10XX WESTWIND CT
19F135360 16:09:55 45 NEIGHBORHOOD 93XX COMFORT CT
19F135350 16:10:29 25HS HIT SKIP 38XX WEISSER PARK AVE
19F135351 16:11:46 44LM 49XX WAYNE PARK DR
19F135352 16:18:22 40A AUDIBLE 32XX CLAIRMONT CT
19F135353 16:20:03 46 DOMESTIC 39XX S HANNA ST
19F135356 16:20:24 34 TRAFF HAZARD E WALLEN RD & AUBURN RD
19F135354 16:23:38 30 TRAFFIC STOP E RUDISILL BLVD & S HANNA ST
19F135355 16:28:05 41 MAN DOWN 73XX LIMA RD
19F135361 16:29:27 33J LOCKED OUT 40XX PARNELL AVE
19F135357 16:30:13 103 UNWANTED 35XX S HANNA ST
19F135359 16:36:27 30 TRAFFIC STOP S ANTHONY BLVD & CHARTWELL DR
19F135381 16:47:15 11C CAGE CAR 17XX APPLE GLEN BLVD
19F135362 16:49:31 25HS HIT SKIP 4XX EDGEWOOD AVE
19F135364 16:50:09 46 DOMESTIC 24XX PAUL ST
19F135373 16:50:09 96 BATTERY XX E MAIN ST
19F135363 16:50:12 103 UNWANTED 56XX WOODSHIRE DR
19F135371 16:51:17 25HS HIT SKIP 46XX GAYWOOD DR
19F135367 16:51:23 46 DOMESTIC 13XX TAYLOR ST
19F135365 16:52:04 30 TRAFFIC STOP E PETTIT AVE & WINTER ST
19F135375 16:52:55 14 WARRANT 33XX FELICIAN ST
19F135368 16:53:03 113 SHOTS FIRED 8XX MULBERRY LN
19F135366 16:53:15 103 UNWANTED 39XX S ANTHONY BLVD
19F135369 16:55:23 34 TRAFF HAZARD E WASHINGTON CENTER RD & COLDWATER
19F135374 16:59:13 25HS HIT SKIP S LAFAYETTE ST & S HANNA ST
19F135372 16:59:15 30 TRAFFIC STOP ST JOE RD & ROEBUCK BLVD
19F135376 17:03:34 55 FIGHT 5XX HOME AVE
19F135378 17:11:00 41 MAN DOWN KINSMOOR AVE & BEAVER AVE
19F135380 17:11:18 96JO 154XX WESLEY CHAPEL RD
19F135379 17:11:32 30 TRAFFIC STOP S HANNA ST & E RUDISILL BLVD
19F135399 17:11:53 51 THEFT 7XX CANDLELITE CT
19F135419 17:13:33 51 THEFT 23XX EBY AVE
19F135383 17:18:11 37 PARKING VIOL 3XX N CORNELL CIR
19F135382 17:18:49 48 SUSPICIOUS 58XX RIVER RUN TRL
19F135384 17:32:24 96JO 45XX BOWSER AVE
19F135385 17:34:45 23JO 28XX FAIRFIELD AVE
19F135386 17:36:38 40A AUDIBLE 34XX E WASHINGTON BLVD
19F135388 17:38:13 48 SUSPICIOUS 58XX ST JOE RD
19F135389 17:39:37 911 HANG UP 37XX WHETSTONE LN
19F135390 17:39:57 43 DISTURBANCE 30XX MCCORMICK AVE
19F135391 17:44:09 47 REMOVE ITEMS 12XX BARTHOLD ST
19F135393 17:46:14 48,35 TRENTMAN AVE & FRUEHAUF DR
19F135392 17:46:20 51 THEFT 21XX FLORIDA DR
19F135394 17:48:05 41,36 WELLS ST & SPRING ST
19F135396 17:48:46 46 DOMESTIC 21XX BROADMOOR AVE
19F135395 17:50:02 46 DOMESTIC HOBSON RD & E STATE BLVD
19F135397 17:51:08 EMS 29XX GOSHEN RD
19F135398 17:53:03 48,35 38XX LAKE AVE
19F135400 18:02:39 46,96 16XX CHEROKEE RD
19F135402 18:04:43 22I JUV INVEST W WOODLAND AVE & HOAGLAND AVE
19F135401 18:07:03 103 UNWANTED 5XX W JEFFERSON BLVD
19F135406 18:17:57 66 MENTALLY ILL 19XX FOX POINT TRL
19F135404 18:20:28 25HS HIT SKIP 65XX E STATE BLVD
19F135403 18:20:40 65A SUICIDE ATT 12XX KINSMOOR AVE
19F135407 18:21:34 22RN RUNAWAY 9XX E WASHINGTON BLVD
19F135405 18:22:58 911 HANG UP 57XX WILKIE DR
19F135408 18:33:17 22I JUV INVEST 48XX ESTER DR
19F135409 18:34:45 40A AUDIBLE 41XX HESSEN CASSEL RD
19F135410 18:40:45 66V MENTAL VIOL 59XX LUNADA DR
19F135411 18:44:04 65T SUICIDE THR 73XX E KENSINGTON DR
19F135412 18:46:19 15,85 ASST AT O 35XX FOREST AVE
19F135413 18:47:40 50IP BURG I/P 9XX FULTON ST
19F135418 18:49:48 25 PD ACCIDENT PROGRESS RD & VALUE DR
19F135414 18:49:51 25 PD ACCIDENT 10XX E COLISEUM BLVD
19F135415 18:51:29 30 TRAFFIC STOP S CLINTON ST & E SUPERIOR ST
19F135416 18:53:17 96 BATTERY 5XX HOME AVE
19F135420 18:57:12 40A AUDIBLE 13XX ORCHARD ST
19F135426 19:00:47 63 CONTACT 9XX E WASHINGTON BLVD
19F135421 19:02:01 103 UNWANTED 5XX HOME AVE
19F135423 19:05:09 37 PARKING VIOL 13XX POLK ST
19F135422 19:05:41 25HS HIT SKIP 19XX GREENTREE CT
19F135424 19:18:48 30 TRAFFIC STOP N CLINTON ST & E STATE BLVD
19F135425 19:20:11 46,96 LAKE AVE & LOREE ST
19F135428 19:23:52 46 DOMESTIC 3XX NUSSBAUM AVE
19F135427 19:27:21 41 MAN DOWN 6XX W FOURTH ST
19F135429 19:33:25 43 DISTURBANCE 18XX MARY ST
19F135430 19:40:46 43 DISTURBANCE 27XX CANTERBURY BLVD
19F135433 19:48:07 63 CONTACT 6XX S HARRISON ST
19F135431 19:51:21 46 DOMESTIC 96XX CARINE CV
19F135432 19:51:34 47 REMOVE ITEMS 41XX WIMBLEDON CT
19F135434 19:58:25 48 SUSPICIOUS 12XX N COLISEUM BLVD
19F135435 20:02:30 23 VANDALISM 15XX PEMBERTON DR
19F135437 20:03:59 43 DISTURBANCE 19XX DREXEL AVE
19F135436 20:04:27 14S SERVING WAR 25XX MINER ST
19F135438 20:08:12 43 DISTURBANCE 56XX OLD DOVER BLVD
19F135439 20:23:21 62 PARTY ARMED 3XX E HOOVER DR
19F135440 20:23:42 25 PD ACCIDENT N CLINTON ST & EDGEWOOD AVE
19F135441 20:29:32 96JO 8XX COLUMBIA AVE
19F135442 20:35:13 25 PD ACCIDENT 122XX W JEFFERSON BLVD
19F135443 20:52:03 43 DISTURBANCE 21XX EDEN ST
19F135445 20:54:52 48 SUSPICIOUS 43XX S ANTHONY BLVD
19F135444 20:55:11 30 TRAFFIC STOP LAKE AVE & HOBSON RD
19F135446 20:58:28 25HS HIT SKIP 14XX RUNNION AVE
19F135447 21:00:59 43,62 27XX W WASHINGTON CENTER RD
19F135448 21:04:07 15,85 ASST AT O 2XX W OAKDALE DR
19F135449 21:20:26 1 MEET 27XX W WASHINGTON CENTER RD
19F135450 21:29:48 23,35 VAND VEH 13XX SINCLAIR ST
19F135451 21:30:22 43,62 48XX BOWSER AVE
19F135452 21:35:05 25 PD ACCIDENT 46XX FAIRLAWN PASS
19F135453 21:35:58 30 TRAFFIC STOP HOBSON RD & VANCE AVE
19F135454 21:38:39 46 DOMESTIC 43XX MERIDITH DR
19F135460 21:41:59 108 FOLLOWUP 13XX SINCLAIR ST
19F135455 21:42:41 30 TRAFFIC STOP NEW HAVEN AVE & HOLLY AVE
19F135458 21:43:40 23,113 7XX DOLPHIN DR
19F135457 21:47:13 103 UNWANTED 11XX S HARRISON ST
19F135456 21:49:10 30 TRAFFIC STOP 24XX FAIRFIELD AVE
19F135459 21:59:29 108 FOLLOWUP 28XX OVERLOOK DR
19F135461 22:03:13 48 SUSPICIOUS 41XX LIMA RD
19F135462 22:07:04 30 TRAFFIC STOP BLUFFTON RD & ENGLE RD
19F135463 22:12:32 30 TRAFFIC STOP BROADWAY & BLUFFTON RD
19F135464 22:21:35 129 55XX CENTERHURST TERR
19F135465 22:22:01 129 75XX WYNNEWOOD LN
19F135466 22:36:19 34 TRAFF HAZARD GOSHEN RD & W COLISEUM BLVD
19F135467 22:39:59 30 TRAFFIC STOP E PONTIAC ST & FLEETWOOD AVE
19F135468 22:46:04 48,36 39XX HESSEN CASSEL RD
19F135469 22:47:16 30 TRAFFIC STOP N COLISEUM BLVD & E STATE BLVD
19F135470 22:53:17 30 TRAFFIC STOP W STATE BLVD & ST MARYS AVE
19F135471 22:59:40 30 TRAFFIC STOP W DUPONT RD & NOTTAWA TRL
19F135472 23:00:06 48,36 29XX GOSHEN RD
19F135473 23:02:00 113 SHOTS FIRED E STATE BLVD & CRESCENT AVE
19F135475 23:02:17 23 VANDALISM 49XX LIMA RD
19F135474 23:02:47 30 TRAFFIC STOP OXFORD ST & MEYER RD
19F135476 23:08:54 30 TRAFFIC STOP E COLISEUM BLVD & N ANTHONY BLVD
19F135477 23:09:33 30 TRAFFIC STOP 22XX GOSHEN RD
19F135478 23:13:37 25 PD ACCIDENT GOSHEN RD & INDEPENDENCE DR
19F135479 23:15:46 30 TRAFFIC STOP GOSHEN RD & INDEPENDENCE DR
19F135480 23:22:44 25HS HIT SKIP 3XX E WOODLAND AVE
19F135481 23:25:41 30 TRAFFIC STOP 23XX DREXEL AVE
19F135482 23:29:31 30 TRAFFIC STOP S ANTHONY BLVD & E LEWIS ST
19F135483 23:36:57 51JO 10XX S CALHOUN ST
19F135484 23:39:50 30 TRAFFIC STOP WELLS ST & ELMER AVE
19F135485 23:41:14 30 TRAFFIC STOP LIMA RD & W WASHINGTON CENTER RD
19F135486 23:45:10 43 DISTURBANCE 31XX PENNSYLVANIA ST
19F135487 23:47:59 30 TRAFFIC STOP STELLHORN RD & REED RD
19F135488 23:48:36 108 FOLLOWUP 52XX EASTWICK DR
19F135489 23:58:16 30 TRAFFIC STOP LEY RD & LIMA RD
19F135490 23:59:31 30 TRAFFIC STOP E COLISEUM BLVD & N CLINTON ST